STARLINK-34522

Last updated on Thu Jul 03 2025 00:02:07 GMT+0000 (Coordinated Universal Time)

1 64492U 25133W 25183.58335648 -.01251575 00000+0 -61577-2 0 9995 2 64492 53.1551 210.7575 0001113 59.1324 323.5353 15.84080529 2721
UTC large
Height (km)
Speed (km/s)
/
Latitude / Longitude
Inclination (degrees)
Orbital Period (minutes)
Azimuth
Elevation
Range (km)
Doppler Factor

Next 0 passes for location: London (51.5072 / 0.1276)

Sorry there are no passes over London.